This is the latest recevied weather packets stored in our database for station/object LA9TLA-1. If no packets are shown the sender has not sent any weather packets the latest 10 day(s).
| Time | Temp. | Humidity | Pressure | Rain* | Wind** | Luminosity | Snow |
|---|---|---|---|---|---|---|---|
| 1788690901 | 15° C | 10% | 1010.7 hPa | 0 mm | - | - | - |
| 1788687301 | 15.56° C | 10% | 1011 hPa | 0 mm | - | - | - |
| 1788683700 | 15° C | 10% | 1010.7 hPa | 0 mm | - | - | - |
| 1788680100 | 17.22° C | 79% | 1010.7 hPa | 0 mm | - | - | - |
| 1788678300 | 15.56° C | 76% | 1010.5 hPa | 0 mm | - | - | - |
| 1788676500 | 13.89° C | 99% | 1010.3 hPa | 0 mm | - | - | - |
| 1788672902 | 12.78° C | 99% | 1010 hPa | 0 mm | - | - | - |
| 1788671100 | 12.78° C | 99% | 1009.6 hPa | 0.25 mm | - | - | - |
| 1788669302 | 12.22° C | 99% | 1009.8 hPa | 0.25 mm | - | - | - |
| 1788667501 | 12.78° C | 99% | 1009.8 hPa | 0 mm | - | - | - |
| 1788665706 | 12.78° C | 99% | 1009.7 hPa | 0 mm | - | - | - |
| 1788663900 | 13.33° C | 99% | 1009.6 hPa | 0 mm | - | - | - |
| 1788662102 | 13.33° C | 99% | 1009.4 hPa | 0 mm | - | - | - |
| 1788660301 | 12.78° C | 99% | 1009.2 hPa | 0.51 mm | - | - | - |
| 1788654900 | 13.89° C | 99% | 1008.6 hPa | 0 mm | - | - | - |
| 1788653100 | 13.89° C | 99% | 1008.5 hPa | 0 mm | - | - | - |
| 1788647700 | 13.33° C | 99% | 1007.4 hPa | 0 mm | - | - | - |
| 1788644100 | 13.33° C | 99% | 1006.6 hPa | 0 mm | - | - | - |
| 1788640501 | 13.89° C | 99% | 1005.7 hPa | 0 mm | - | - | - |
| 1788636902 | 13.89° C | 99% | 1004.7 hPa | 0 mm | - | - | - |
| 1788633302 | 13.89° C | 99% | 1003.8 hPa | 0 mm | - | - | - |
| 1788631500 | 13.89° C | 99% | 1003.5 hPa | 0 mm | - | - | - |
| 1788629702 | 13.89° C | 99% | 1003.1 hPa | 0 mm | - | - | - |
| 1788627900 | 14.44° C | 99% | 1002.2 hPa | 1.02 mm | - | - | - |
| 1788626101 | 13.89° C | 99% | 1001.8 hPa | 2.79 mm | - | - | - |
* Rain latest hour (hover to see other rain measurements)
** Current wind speed in m/s (hover to see current wind gust speed)